Regional Weather Roundup
Issued by NWS

Home | Current Version | Previous Version | Text Only | Print | Product List | Glossary Off
Versions: 1 2 3 4 5 6 7 8 9 10 11 12 13 14 15 16 17 18 19 20 21 22 23 24 25 26 27 28 29 30 31 32 33 34 35 36 37 38 39 40 41 42 43 44 45 46 47 48 49 50

000
ASUS45 KCYS 231110
RWRWY

WYOMING REGIONAL WEATHER ROUNDUP
NATIONAL WEATHER SERVICE CHEYENNE WY
500 AM MDT SAT AUG 23 2014

NOTE:  "FAIR" INDICATES FEW OR NO CLOUDS BELOW 12,000 FEET
WITH NO SIGNIFICANT WEATHER AND/OR OBSTRUCTIONS TO VISIBILITY.

WYZ001-231200-
YELLOWSTONE NATIONAL PARK

CITY           SKY/WX    TMP DP  RH WIND       PRES   REMARKS
LK YELLOWSTONE   N/A     42  41  96 CALM      30.12S
W YELLOWSTONE  NOT AVBL

$$
WYZ002>013-054>058-071-098>099-231200-
NORTHERN WYOMING

CITY           SKY/WX    TMP DP  RH WIND       PRES   REMARKS
JACKSON        CLOUDY    45  45 100 CALM      30.06S
CODY           CLOUDY    54  52  94 NE5       29.97F
GREYBULL       RAIN      58  56  93 NW7       29.93S FOG
WORLAND        RAIN      56  54  93 SW3       29.94S FOG
SHERIDAN       CLOUDY    60  57  89 CALM      29.91F
BUFFALO        CLOUDY    58  56  93 E3        29.95F
GILLETTE       CLOUDY    60  59  96 SE5       29.92F
HULETT         RAIN      63  61  94 MISG      29.95
NEWCASTLE      PTSUNNY   61  59  94 SE9       29.94

$$
WYZ014>020-022>026-101>103-231200-
CENTRAL WYOMING

CITY           SKY/WX    TMP DP  RH WIND       PRES   REMARKS
BIG PINEY      CLOUDY    45  43  93 S5        30.08F
PINEDALE       CLOUDY    45  45 100 E3        30.09S
DUBOIS         CLOUDY    45  39  81 NW12      30.05F
LANDER         CLOUDY    53  51  93 NW6       29.97F
RIVERTON       CLOUDY    52  51  97 E3        29.98F
CASPER         CLOUDY    57  55  93 CALM      29.96S
DOUGLAS        MOCLDY    59  55  87 S9        29.95F

$$
WYZ021-027>030-104>119-231200-
SOUTHERN WYOMING

CITY           SKY/WX    TMP DP  RH WIND       PRES   REMARKS
EVANSTON       MOCLDY    45  43  93 SE3       30.09F
KEMMERER       CLOUDY    43  41  93 CALM      30.10S
FORT BRIDGER     N/A     46  44  93 SW7       30.12S
ROCK SPRINGS   CLOUDY    45  44  97 CALM      30.09F
DIXON          RAIN      49  47  93 SW6       30.18S
RAWLINS        CLOUDY    49  44  83 W20G29    30.09S
SARATOGA       CLOUDY    50  45  81 MISG      30.12S
LARAMIE        PTCLDY    48  46  93 N5        30.05F
CHEYENNE       CLOUDY    57  55  93 SW8       30.00F
TORRINGTON     CLOUDY    60  59  96 E9        29.92F
PINE BLUFFS    PTSUNNY   55  54  94 SE5       29.97F

$$



USA.gov is the U.S. government's official web portal to all federal, state and local government web resources and services.